When you browse on this site, cookies collect data to enhance your experience and personalize the content and advertising you see.
Visit our Privacy Policy to learn more. By continuing to use the site, you agree to this use of cookies and data.
  • In Lithuania
  • List of Countries
  • For 7 days
  • Water Temperature
  • Satellite Maps
  • Weather Map
  • Weather Widgets
  • user-avatar
    Login

    Hourly Weather Verhnestepnoy

    Today, 22 February, Friday

    Time Temperature Precipitation Wind Pressure Humidity
    00:00 +3°C° 0 mm 2 mps 745 mmHg 47%
    01:00 +4°C° 0 mm 1 mps 745 mmHg 53%
    02:00 +4°C° 0 mm 1 mps 745 mmHg 59%
    03:00 +4°C° 0 mm 1 mps 744 mmHg 66%
    04:00 +4°C° 0 mm 1 mps 745 mmHg 69%
    05:00 +3°C° 0 mm 1 mps 745 mmHg 72%
    06:00 +2°C° 0 mm 2 mps 745 mmHg 76%
    07:00 +2°C° 0 mm 3 mps 745 mmHg 73%
    08:00 +3°C° 0 mm 4 mps 746 mmHg 70%
    09:00 +3°C° 0 mm 5 mps 746 mmHg 68%
    10:00 +5°C° 0 mm 4 mps 746 mmHg 64%
    11:00 +5°C° 0 mm 4 mps 746 mmHg 60%
    12:00 +7°C° 0 mm 3 mps 746 mmHg 56%
    13:00 +7°C° 0 mm 3 mps 746 mmHg 54%
    14:00 +7°C° 0 mm 2 mps 745 mmHg 52%
    15:00 +8°C° 0 mm 1 mps 745 mmHg 51%
    16:00 +7°C° 0 mm 2 mps 746 mmHg 54%
    17:00 +6°C° 0 mm 2 mps 746 mmHg 58%
    18:00 +5°C° 0 mm 3 mps 746 mmHg 61%
    19:00 +4°C° 0 mm 3 mps 746 mmHg 63%
    20:00 +4°C° 0 mm 3 mps 746 mmHg 65%
    21:00 +3°C° 0 mm 3 mps 747 mmHg 67%
    22:00 +3°C° 0 mm 3 mps 747 mmHg 70%
    23:00 +2°C° 0 mm 3 mps 746 mmHg 73%

    Tomorrow, 23 February, Saturday

    Time Temperature Precipitation Wind Pressure Humidity
    00:00 +1°C° 0 mm 4 mps 746 mmHg 76%
    01:00 +1°C° 0 mm 3 mps 746 mmHg 79%
    02:00 +1°C° 0 mm 3 mps 746 mmHg 83%
    03:00 +1°C° 0 mm 2 mps 746 mmHg 86%
    04:00 +1°C° 0 mm 2 mps 746 mmHg 89%
    05:00 +1°C° 0 mm 2 mps 746 mmHg 91%
    06:00 +1°C° 0 mm 2 mps 747 mmHg 93%
    07:00 +2°C° 0 mm 2 mps 747 mmHg 91%
    08:00 +2°C° 0 mm 3 mps 747 mmHg 89%
    09:00 +2°C° 0 mm 3 mps 748 mmHg 86%
    10:00 +3°C° 0 mm 3 mps 748 mmHg 82%
    11:00 +4°C° 0 mm 3 mps 747 mmHg 77%
    12:00 +5°C° 0 mm 3 mps 747 mmHg 73%
    13:00 +8°C° 0 mm 3 mps 747 mmHg 66%
    14:00 +9°C° 0 mm 3 mps 747 mmHg 60%
    15:00 +10°C° 0 mm 3 mps 747 mmHg 54%
    16:00 +9°C° 0 mm 3 mps 748 mmHg 57%
    17:00 +8°C° 0 mm 3 mps 748 mmHg 61%
    18:00 +7°C° 0 mm 3 mps 748 mmHg 64%
    19:00 +7°C° 0 mm 3 mps 749 mmHg 67%
    20:00 +5°C° 0 mm 3 mps 749 mmHg 69%
    21:00 +4°C° 0 mm 3 mps 750 mmHg 72%
    22:00 +4°C° 0 mm 3 mps 750 mmHg 75%
    23:00 +3°C° 0 mm 3 mps 750 mmHg 77%

    Day after tomorrow, 24 February, Sunday

    Time Temperature Precipitation Wind Pressure Humidity
    00:00 +3°C° 0 mm 3 mps 750 mmHg 80%
    01:00 +3°C° 0 mm 2 mps 750 mmHg 82%
    02:00 +3°C° 0 mm 2 mps 750 mmHg 84%
    03:00 +3°C° 0 mm 1 mps 750 mmHg 87%
    04:00 +3°C° 0 mm 1 mps 750 mmHg 87%
    05:00 +3°C° 0 mm 1 mps 751 mmHg 87%
    06:00 +2°C° 0 mm 0 mps 751 mmHg 88%
    07:00 +3°C° 0 mm 0 mps 751 mmHg 84%
    08:00 +3°C° 0 mm 0 mps 751 mmHg 81%
    09:00 +5°C° 0 mm 1 mps 751 mmHg 78%
    10:00 +7°C° 0 mm 1 mps 751 mmHg 71%
    11:00 +8°C° 0 mm 1 mps 751 mmHg 64%
    12:00 +9°C° 0 mm 2 mps 751 mmHg 57%
    13:00 +9°C° 0 mm 2 mps 751 mmHg 54%
    14:00 +10°C° 0 mm 2 mps 751 mmHg 51%
    15:00 +12°C° 0 mm 2 mps 750 mmHg 48%
    16:00 +10°C° 0 mm 2 mps 751 mmHg 52%
    17:00 +9°C° 0 mm 2 mps 751 mmHg 56%
    18:00 +8°C° 0 mm 2 mps 751 mmHg 60%
    19:00 +8°C° 0 mm 2 mps 752 mmHg 62%
    20:00 +7°C° 0 mm 2 mps 752 mmHg 64%
    21:00 +7°C° 0 mm 2 mps 752 mmHg 67%
    22:00 +6°C° 0 mm 2 mps 752 mmHg 70%
    23:00 +5°C° 0 mm 3 mps 753 mmHg 74%

    25 February, Monday

    Time Temperature Precipitation Wind Pressure Humidity
    00:00 +4°C° 0 mm 3 mps 753 mmHg 78%
    01:00 +4°C° 0.2 mm 4 mps 753 mmHg 80%
    02:00 +3°C° 0.2 mm 4 mps 753 mmHg 83%
    03:00 +1°C° 0.2 mm 4 mps 753 mmHg 85%
    04:00 +2°C° 0.6 mm 3 mps 753 mmHg 86%
    05:00 +1°C° 0.6 mm 3 mps 753 mmHg 86%
    06:00 +1°C° 0.6 mm 3 mps 753 mmHg 87%
    07:00 +1°C° 0.5 mm 3 mps 753 mmHg 87%
    08:00 +2°C° 0.5 mm 2 mps 753 mmHg 86%
    09:00 +2°C° 0.5 mm 2 mps 753 mmHg 86%
    10:00 +2°C° 0.2 mm 2 mps 753 mmHg 84%
    11:00 +2°C° 0.2 mm 3 mps 753 mmHg 81%
    12:00 +2°C° 0.2 mm 3 mps 752 mmHg 78%
    13:00 +3°C° 0 mm 3 mps 752 mmHg 76%
    14:00 +3°C° 0 mm 3 mps 751 mmHg 73%
    15:00 +3°C° 0 mm 3 mps 751 mmHg 70%
    16:00 +3°C° 0 mm 3 mps 750 mmHg 72%
    17:00 +3°C° 0 mm 3 mps 750 mmHg 74%
    18:00 +3°C° 0 mm 2 mps 750 mmHg 75%
    19:00 +2°C° 0 mm 3 mps 749 mmHg 77%
    20:00 +1°C° 0 mm 3 mps 749 mmHg 78%
    21:00 +1°C° 0 mm 3 mps 749 mmHg 80%
    22:00 0°C° 0 mm 3 mps 748 mmHg 80%
    23:00 0°C° 0 mm 3 mps 748 mmHg 81%

    26 February, Tuesday

    Time Temperature Precipitation Wind Pressure Humidity
    00:00 -1°C° 0 mm 3 mps 747 mmHg 81%
    01:00 -1°C° 0 mm 3 mps 747 mmHg 81%
    02:00 -1°C° 0 mm 3 mps 746 mmHg 80%
    03:00 -1°C° 0 mm 3 mps 746 mmHg 79%
    04:00 -1°C° 0 mm 3 mps 745 mmHg 80%
    05:00 -2°C° 0 mm 4 mps 745 mmHg 81%
    06:00 -2°C° 0 mm 4 mps 744 mmHg 82%
    07:00 -1°C° 0 mm 5 mps 744 mmHg 76%
    08:00 -1°C° 0 mm 6 mps 743 mmHg 71%
    09:00 0°C° 0 mm 7 mps 743 mmHg 65%
    10:00 +2°C° 0 mm 7 mps 742 mmHg 63%
    11:00 +3°C° 0 mm 7 mps 741 mmHg 60%
    12:00 +4°C° 0 mm 7 mps 740 mmHg 58%
    13:00 +4°C° 0.1 mm 7 mps 739 mmHg 59%
    14:00 +4°C° 0.1 mm 6 mps 739 mmHg 61%
    15:00 +4°C° 0.1 mm 6 mps 738 mmHg 62%
    16:00 +3°C° 0.3 mm 5 mps 738 mmHg 67%
    17:00 +4°C° 0.3 mm 4 mps 737 mmHg 72%
    18:00 +3°C° 0.3 mm 3 mps 737 mmHg 77%
    19:00 +3°C° 0.6 mm 3 mps 737 mmHg 79%
    20:00 +2°C° 0.6 mm 3 mps 737 mmHg 82%
    21:00 +2°C° 0.6 mm 3 mps 737 mmHg 84%
    22:00 +2°C° 0.4 mm 2 mps 736 mmHg 85%
    23:00 +2°C° 0.4 mm 2 mps 736 mmHg 86%

    27 February, Wednesday

    Time Temperature Precipitation Wind Pressure Humidity
    00:00 +1°C° 0.4 mm 2 mps 736 mmHg 87%
    01:00 +1°C° 0.2 mm 2 mps 735 mmHg 87%
    02:00 +1°C° 0.2 mm 2 mps 735 mmHg 87%
    03:00 -1°C° 0.2 mm 2 mps 735 mmHg 87%
    04:00 -1°C° 0.1 mm 2 mps 735 mmHg 87%
    05:00 +1°C° 0.1 mm 1 mps 735 mmHg 87%
    06:00 +1°C° 0.1 mm 1 mps 735 mmHg 88%
    07:00 +1°C° 0.1 mm 1 mps 735 mmHg 85%
    08:00 -1°C° 0.1 mm 2 mps 735 mmHg 83%
    09:00 +1°C° 0.1 mm 2 mps 735 mmHg 80%
    10:00 +2°C° 0 mm 1 mps 734 mmHg 76%
    11:00 +3°C° 0 mm 1 mps 734 mmHg 72%
    12:00 +4°C° 0 mm 1 mps 734 mmHg 67%
    13:00 +4°C° 0 mm 1 mps 734 mmHg 66%
    14:00 +3°C° 0 mm 0 mps 734 mmHg 64%
    15:00 +4°C° 0 mm 0 mps 734 mmHg 62%
    16:00 +3°C° 0 mm 0 mps 734 mmHg 65%
    17:00 +3°C° 0 mm 0 mps 735 mmHg 69%
    18:00 +3°C° 0 mm 0 mps 735 mmHg 72%
    19:00 +3°C° 0.1 mm 0 mps 735 mmHg 75%
    20:00 +3°C° 0.1 mm 1 mps 736 mmHg 77%
    21:00 +3°C° 0.1 mm 1 mps 736 mmHg 80%
    22:00 +3°C° 0.1 mm 1 mps 736 mmHg 81%
    23:00 +3°C° 0.1 mm 1 mps 736 mmHg 82%
    Show more